^^

..:: Storico WU ::..




Lo storico viene creato da WUnderground con i dati che la stazione Meteomincio invia al loro server. L' aggiornamento viene fatto ogni 5 minuti circa, tuttavia possono esserci intervalli pił ampi a causa di errori, interruzioni di servizio o problemi nell' invio tramite FTP.


Storico stazione MeteoMincio
Giorno Sommario per Giugno 19, 2022 Unità:  Inglese    Metrico   Entrambi
Giorno Settimana Mese Anno
  Max: Min: Media:
Temperatura: 93.2 °F 68 °F 80.8 °F
Dew Point: 66.2 °F 59 °F 62.4 °F
Umidità: 76% 39% 56%
Velocità vento: 9.3mph 1.2mph 4.5mph
Raffica: 14.3mph - -
Direzione- - East
Pressione: 30 in 29.9 in -
Precipitazioni: 0 in    
 
 
Tabulato Dati per Giugno 19, 2022
Ora Temperatura Dew Point Pressione Direzione Velocità vento Raffica Umidità Intensità pioggia (oraria) Info solare Situazione
00:03 75.2 °F 60.8 °F 30 in ESE 3.1 mph 5 mph 61% 0 in 0.00 W/m2 unknown
00:09 75.2 °F 60.8 °F 30 in ESE 3.1 mph 5 mph 61% 0 in 0.00 W/m2 unknown
00:14 75.2 °F 60.8 °F 30 in ESE 3.7 mph 5 mph 61% 0 in 0.00 W/m2 unknown
00:19 75.2 °F 60.8 °F 30 in ESE 3.1 mph 5 mph 61% 0 in 0.00 W/m2 unknown
00:24 75.2 °F 60.8 °F 30 in ESE 3.1 mph 3.7 mph 61% 0 in 0.00 W/m2 unknown
00:29 75.2 °F 60.8 °F 30 in ESE 1.9 mph 3.7 mph 61% 0 in 0.00 W/m2 unknown
00:34 75.2 °F 60.8 °F 30 in ESE 2.5 mph 3.7 mph 62% 0 in 0.00 W/m2 unknown
00:39 73.4 °F 60.8 °F 30 in ESE 2.5 mph 3.7 mph 62% 0 in 0.00 W/m2 unknown
00:44 73.4 °F 60.8 °F 30 in ESE 2.5 mph 3.7 mph 62% 0 in 0.00 W/m2 unknown
00:49 73.4 °F 60.8 °F 30 in East 2.5 mph 3.7 mph 62% 0 in 0.00 W/m2 unknown
00:54 73.4 °F 60.8 °F 30 in ENE 1.9 mph 3.7 mph 63% 0 in 0.00 W/m2 unknown
00:59 73.4 °F 60.8 °F 30 in NE 1.9 mph 3.7 mph 64% 0 in 0.00 W/m2 unknown
01:04 73.4 °F 60.8 °F 30 in North 2.5 mph 3.7 mph 65% 0 in 0.00 W/m2 unknown
01:09 73.4 °F 60.8 °F 30 in NNE 1.9 mph 3.7 mph 65% 0 in 0.00 W/m2 unknown
01:13 73.4 °F 60.8 °F 30 in NNE 1.2 mph 2.5 mph 64% 0 in 0.00 W/m2 unknown
01:19 73.4 °F 60.8 °F 30 in NE 1.2 mph 2.5 mph 64% 0 in 0.00 W/m2 unknown
01:24 73.4 °F 60.8 °F 30 in NE 1.9 mph 3.7 mph 65% 0 in 0.00 W/m2 unknown
01:29 73.4 °F 60.8 °F 30 in NE 2.5 mph 3.7 mph 66% 0 in 0.00 W/m2 unknown
01:34 73.4 °F 60.8 °F 30 in NNE 3.1 mph 3.7 mph 67% 0 in 0.00 W/m2 unknown
01:39 71.6 °F 60.8 °F 30 in NNE 3.1 mph 5 mph 68% 0 in 0.00 W/m2 unknown
01:44 71.6 °F 60.8 °F 30 in NE 3.7 mph 6.2 mph 69% 0 in 0.00 W/m2 unknown
01:49 71.6 °F 60.8 °F 30 in NE 3.7 mph 6.2 mph 70% 0 in 0.00 W/m2 unknown
01:54 71.6 °F 60.8 °F 30 in NNE 3.1 mph 5 mph 70% 0 in 0.00 W/m2 unknown
01:59 71.6 °F 60.8 °F 30 in NNE 3.7 mph 5 mph 70% 0 in 0.00 W/m2 unknown
02:04 71.6 °F 60.8 °F 30 in NNE 3.7 mph 5 mph 71% 0 in 0.00 W/m2 unknown
02:09 71.6 °F 60.8 °F 30 in NNE 4.3 mph 6.2 mph 71% 0 in 0.00 W/m2 unknown
02:13 71.6 °F 60.8 °F 30 in NNE 4.3 mph 6.2 mph 70% 0 in 0.00 W/m2 unknown
02:19 71.6 °F 60.8 °F 30 in NNE 5 mph 5 mph 70% 0 in 0.00 W/m2 unknown
02:22 71.6 °F 60.8 °F 30 in NE 3.1 mph 5 mph 70% 0 in 0.00 W/m2 unknown
02:29 71.6 °F 60.8 °F 30 in NE 3.1 mph 3.7 mph 70% 0 in 0.00 W/m2 unknown
02:34 71.6 °F 60.8 °F 30 in ENE 3.1 mph 5 mph 71% 0 in 0.00 W/m2 unknown
02:39 69.8 °F 60.8 °F 30 in NE 3.1 mph 5 mph 71% 0 in 0.00 W/m2 unknown
02:44 69.8 °F 60.8 °F 30 in NE 3.7 mph 5 mph 71% 0 in 0.00 W/m2 unknown
02:49 69.8 °F 60.8 °F 30 in NE 3.1 mph 5 mph 71% 0 in 0.00 W/m2 unknown
02:54 69.8 °F 60.8 °F 30 in NE 3.1 mph 5 mph 71% 0 in 0.00 W/m2 unknown
02:59 69.8 °F 60.8 °F 30 in NE 3.1 mph 5 mph 71% 0 in 0.00 W/m2 unknown
03:04 69.8 °F 60.8 °F 30 in ENE 3.7 mph 5 mph 71% 0 in 0.00 W/m2 unknown
03:09 69.8 °F 60.8 °F 30 in NE 3.7 mph 5 mph 70% 0 in 0.00 W/m2 unknown
03:14 69.8 °F 60.8 °F 30 in ENE 3.7 mph 5 mph 70% 0 in 0.00 W/m2 unknown
03:19 69.8 °F 60.8 °F 30 in NE 3.7 mph 5 mph 69% 0 in 0.00 W/m2 unknown
03:22 69.8 °F 60.8 °F 30 in NE 3.1 mph 5 mph 69% 0 in 0.00 W/m2 unknown
03:28 69.8 °F 60.8 °F 30 in NE 3.1 mph 3.7 mph 69% 0 in 0.00 W/m2 unknown
03:33 69.8 °F 60.8 °F 30 in NE 3.1 mph 3.7 mph 69% 0 in 0.00 W/m2 unknown
03:39 69.8 °F 60.8 °F 30 in NE 3.1 mph 3.7 mph 69% 0 in 0.00 W/m2 unknown
03:44 69.8 °F 60.8 °F 30 in NE 3.7 mph 5 mph 70% 0 in 0.00 W/m2 unknown
03:46 69.8 °F 60.8 °F 30 in NE 3.1 mph 5 mph 70% 0 in 0.00 W/m2 unknown
03:51 69.8 °F 60.8 °F 30 in NE 3.1 mph 5 mph 70% 0 in 0.00 W/m2 unknown
03:57 69.8 °F 60.8 °F 30 in ENE 4.3 mph 5 mph 70% 0 in 0.00 W/m2 unknown
04:03 69.8 °F 59 °F 30 in East 4.3 mph 5 mph 69% 0 in 0.00 W/m2 unknown
04:08 69.8 °F 59 °F 30 in East 4.3 mph 5 mph 72% 0 in 0.00 W/m2 unknown
04:14 69.8 °F 59 °F 30 in ENE 3.1 mph 4.3 mph 73% 0 in 0.00 W/m2 unknown
04:18 68 °F 59 °F 30 in ENE 2.5 mph 5 mph 73% 0 in 0.00 W/m2 unknown
04:24 68 °F 59 °F 30 in ENE 3.1 mph 3.7 mph 74% 0 in 0.00 W/m2 unknown
04:28 68 °F 59 °F 30 in ENE 3.1 mph 3.7 mph 74% 0 in 0.00 W/m2 unknown
04:34 68 °F 59 °F 30 in ENE 3.1 mph 3.7 mph 74% 0 in 0.00 W/m2 unknown
04:38 68 °F 59 °F 30 in ENE 3.7 mph 3.7 mph 74% 0 in 0.00 W/m2 unknown
04:41 68 °F 59 °F 30 in ENE 3.7 mph 5 mph 74% 0 in 0.00 W/m2 unknown
04:49 68 °F 59 °F 30 in ENE 3.7 mph 4.3 mph 73% 0 in 0.00 W/m2 unknown
04:50 68 °F 59 °F 30 in ENE 3.1 mph 5 mph 73% 0 in 0.00 W/m2 unknown
04:58 68 °F 59 °F 30 in ENE 4.3 mph 5 mph 73% 0 in 0.00 W/m2 unknown
05:04 68 °F 59 °F 30 in ENE 3.7 mph 3.7 mph 73% 0 in 0.00 W/m2 unknown
05:07 68 °F 59 °F 30 in ENE 2.5 mph 5 mph 73% 0 in 0.00 W/m2 unknown
05:14 68 °F 59 °F 30 in ENE 3.1 mph 5 mph 73% 0 in 0.00 W/m2 unknown
05:17 68 °F 59 °F 30 in ENE 3.1 mph 4.3 mph 73% 0 in 0.00 W/m2 unknown
05:24 68 °F 59 °F 30 in NE 3.7 mph 5 mph 73% 0 in 0.00 W/m2 unknown
05:29 68 °F 59 °F 30 in NE 3.1 mph 5 mph 74% 0 in 0.00 W/m2 unknown
05:34 68 °F 59 °F 30 in ENE 1.9 mph 3.7 mph 74% 0 in 0.00 W/m2 unknown
05:39 68 °F 59 °F 30 in ENE 2.5 mph 3.7 mph 76% 0 in 0.00 W/m2 unknown
05:44 68 °F 59 °F 30 in ENE 3.1 mph 3.7 mph 76% 0 in 5.00 W/m2 unknown
05:49 68 °F 59 °F 30 in ENE 3.1 mph 3.7 mph 76% 0 in 11.00 W/m2 unknown
05:54 68 °F 59 °F 30 in ENE 3.1 mph 3.7 mph 76% 0 in 12.00 W/m2 unknown
05:59 68 °F 59 °F 30 in NE 3.1 mph 3.7 mph 75% 0 in 16.00 W/m2 unknown
06:04 68 °F 60.8 °F 30 in NE 4.3 mph 6.8 mph 75% 0 in 19.00 W/m2 unknown
06:07 68 °F 60.8 °F 30 in NE 4.3 mph 6.8 mph 75% 0 in 21.00 W/m2 unknown
06:14 68 °F 60.8 °F 30 in NE 4.3 mph 6.8 mph 75% 0 in 21.00 W/m2 unknown
06:19 68 °F 60.8 °F 30 in NE 4.3 mph 6.8 mph 75% 0 in 25.00 W/m2 unknown
06:23 68 °F 60.8 °F 30 in ENE 4.3 mph 6.8 mph 75% 0 in 28.00 W/m2 unknown
06:29 68 °F 60.8 °F 30 in ENE 5 mph 6.8 mph 75% 0 in 28.00 W/m2 unknown
06:34 69.8 °F 60.8 °F 30 in NE 5 mph 5 mph 75% 0 in 47.00 W/m2 unknown
06:39 69.8 °F 60.8 °F 30 in NE 3.1 mph 5 mph 75% 0 in 56.00 W/m2 unknown
06:44 69.8 °F 60.8 °F 30 in NE 3.1 mph 3.7 mph 74% 0 in 69.00 W/m2 unknown
06:49 69.8 °F 62.6 °F 30 in ENE 2.5 mph 3.7 mph 75% 0 in 76.00 W/m2 unknown
06:54 69.8 °F 62.6 °F 30 in ENE 3.1 mph 3.7 mph 76% 0 in 88.00 W/m2 unknown
06:59 69.8 °F 62.6 °F 30 in ENE 3.1 mph 3.7 mph 75% 0 in 102.00 W/m2 unknown
07:04 69.8 °F 62.6 °F 30 in ENE 3.1 mph 3.7 mph 76% 0 in 116.00 W/m2 unknown
07:09 69.8 °F 62.6 °F 30 in ENE 3.1 mph 3.7 mph 76% 0 in 116.00 W/m2 unknown
07:11 69.8 °F 62.6 °F 30 in ENE 2.5 mph 3.7 mph 76% 0 in 116.00 W/m2 unknown
07:18 71.6 °F 62.6 °F 30 in ENE 3.1 mph 5 mph 76% 0 in 144.00 W/m2 unknown
07:24 71.6 °F 62.6 °F 30 in ENE 3.1 mph 5 mph 74% 0 in 165.00 W/m2 unknown
07:27 71.6 °F 62.6 °F 30 in ENE 3.1 mph 5 mph 74% 0 in 171.00 W/m2 unknown
07:34 73.4 °F 64.4 °F 30 in ENE 3.1 mph 6.2 mph 74% 0 in 197.00 W/m2 unknown
07:38 73.4 °F 62.6 °F 30 in East 3.7 mph 6.2 mph 73% 0 in 209.00 W/m2 unknown
07:44 73.4 °F 62.6 °F 30 in East 3.7 mph 6.2 mph 71% 0 in 225.00 W/m2 unknown
07:49 75.2 °F 64.4 °F 30 in East 5.6 mph 6.2 mph 70% 0 in 239.00 W/m2 unknown
07:54 75.2 °F 64.4 °F 30 in East 5.6 mph 6.2 mph 69% 0 in 251.00 W/m2 unknown
07:59 75.2 °F 64.4 °F 30 in East 5 mph 6.2 mph 69% 0 in 262.00 W/m2 unknown
08:04 75.2 °F 64.4 °F 30 in ENE 5.6 mph 6.8 mph 68% 0 in 276.00 W/m2 unknown
08:09 75.2 °F 64.4 °F 30 in ENE 5.6 mph 6.8 mph 67% 0 in 292.00 W/m2 unknown
08:14 77 °F 64.4 °F 30 in East 6.2 mph 6.8 mph 67% 0 in 306.00 W/m2 unknown
08:19 77 °F 64.4 °F 30 in ENE 5 mph 6.8 mph 66% 0 in 320.00 W/m2 unknown
08:24 77 °F 64.4 °F 30 in ENE 3.7 mph 6.8 mph 65% 0 in 336.00 W/m2 unknown
08:29 77 °F 64.4 °F 30 in ENE 3.1 mph 6.8 mph 65% 0 in 350.00 W/m2 unknown
08:34 78.8 °F 64.4 °F 30 in ENE 4.3 mph 6.8 mph 64% 0 in 359.00 W/m2 unknown
08:39 78.8 °F 64.4 °F 30 in ESE 5 mph 6.8 mph 61% 0 in 378.00 W/m2 unknown
08:44 78.8 °F 62.6 °F 30 in East 5.6 mph 8.1 mph 60% 0 in 390.00 W/m2 unknown
08:49 78.8 °F 62.6 °F 30 in ENE 5.6 mph 8.1 mph 60% 0 in 401.00 W/m2 unknown
08:53 78.8 °F 62.6 °F 30 in East 5.6 mph 8.1 mph 56% 0 in 415.00 W/m2 unknown
08:59 78.8 °F 62.6 °F 30 in East 5 mph 8.1 mph 56% 0 in 434.00 W/m2 unknown
09:04 80.6 °F 62.6 °F 30 in ENE 5 mph 6.2 mph 55% 0 in 443.00 W/m2 unknown
09:09 80.6 °F 60.8 °F 30 in East 5 mph 8.1 mph 53% 0 in 459.00 W/m2 unknown
09:14 80.6 °F 60.8 °F 30 in ENE 5.6 mph 8.1 mph 52% 0 in 473.00 W/m2 unknown
09:19 80.6 °F 60.8 °F 30 in ENE 5.6 mph 8.1 mph 52% 0 in 487.00 W/m2 unknown
09:24 80.6 °F 60.8 °F 30 in ENE 6.2 mph 8.1 mph 51% 0 in 499.00 W/m2 unknown
09:29 80.6 °F 60.8 °F 30 in ENE 5.6 mph 9.3 mph 50% 0 in 513.00 W/m2 unknown
09:33 80.6 °F 59 °F 30 in East 7.5 mph 9.3 mph 48% 0 in 524.00 W/m2 unknown
09:39 82.4 °F 60.8 °F 30 in ENE 6.8 mph 9.3 mph 48% 0 in 540.00 W/m2 unknown
09:43 82.4 °F 60.8 °F 30 in East 6.8 mph 9.3 mph 48% 0 in 550.00 W/m2 unknown
09:49 82.4 °F 60.8 °F 30 in East 6.2 mph 10.6 mph 48% 0 in 566.00 W/m2 unknown
09:54 82.4 °F 60.8 °F 30 in East 6.2 mph 10.6 mph 49% 0 in 578.00 W/m2 unknown
09:59 82.4 °F 60.8 °F 30 in ENE 6.2 mph 10.6 mph 49% 0 in 589.00 W/m2 unknown
10:04 82.4 °F 60.8 °F 30 in East 6.2 mph 9.9 mph 48% 0 in 599.00 W/m2 unknown
10:09 82.4 °F 60.8 °F 30 in ENE 5.6 mph 8.1 mph 47% 0 in 610.00 W/m2 unknown
10:14 82.4 °F 60.8 °F 30 in ESE 6.2 mph 8.1 mph 48% 0 in 622.00 W/m2 unknown
10:19 84.2 °F 60.8 °F 30 in East 6.2 mph 8.1 mph 47% 0 in 636.00 W/m2 unknown
10:24 84.2 °F 60.8 °F 30 in NE 6.2 mph 8.1 mph 47% 0 in 649.00 W/m2 unknown
10:29 84.2 °F 60.8 °F 30 in East 6.2 mph 8.7 mph 46% 0 in 657.00 W/m2 unknown
10:34 84.2 °F 60.8 °F 30 in East 6.2 mph 8.7 mph 45% 0 in 668.00 W/m2 unknown
10:39 84.2 °F 60.8 °F 30 in East 6.2 mph 8.1 mph 45% 0 in 679.00 W/m2 unknown
10:44 84.2 °F 60.8 °F 30 in ESE 6.2 mph 9.3 mph 46% 0 in 691.00 W/m2 unknown
10:49 84.2 °F 60.8 °F 30 in East 8.1 mph 10.6 mph 44% 0 in 698.00 W/m2 unknown
10:54 84.2 °F 59 °F 30 in East 7.5 mph 10.6 mph 43% 0 in 708.00 W/m2 unknown
10:59 84.2 °F 60.8 °F 30 in East 7.5 mph 10.6 mph 45% 0 in 721.00 W/m2 unknown
11:04 86 °F 59 °F 30 in East 7.5 mph 14.3 mph 43% 0 in 729.00 W/m2 unknown
11:09 86 °F 60.8 °F 30 in ESE 7.5 mph 14.3 mph 43% 0 in 738.00 W/m2 unknown
11:14 86 °F 60.8 °F 30 in ESE 6.8 mph 11.8 mph 44% 0 in 745.00 W/m2 unknown
11:19 86 °F 60.8 °F 30 in ESE 5 mph 8.1 mph 44% 0 in 752.00 W/m2 unknown
11:24 86 °F 60.8 °F 30 in East 5.6 mph 9.3 mph 43% 0 in 763.00 W/m2 unknown
11:29 86 °F 60.8 °F 30 in ESE 6.2 mph 9.3 mph 43% 0 in 772.00 W/m2 unknown
11:34 86 °F 60.8 °F 30 in East 6.8 mph 9.3 mph 42% 0 in 779.00 W/m2 unknown
11:39 86 °F 62.6 °F 30 in East 6.8 mph 9.3 mph 44% 0 in 786.00 W/m2 unknown
11:44 86 °F 62.6 °F 30 in East 6.2 mph 10.6 mph 44% 0 in 791.00 W/m2 unknown
11:49 86 °F 60.8 °F 30 in ENE 8.1 mph 10.6 mph 42% 0 in 800.00 W/m2 unknown
11:54 86 °F 60.8 °F 30 in ENE 8.1 mph 10.6 mph 43% 0 in 807.00 W/m2 unknown
11:59 87.8 °F 62.6 °F 30 in ENE 6.2 mph 9.3 mph 43% 0 in 812.00 W/m2 unknown
12:04 87.8 °F 60.8 °F 30 in ENE 6.2 mph 9.3 mph 42% 0 in 817.00 W/m2 unknown
12:09 87.8 °F 62.6 °F 30 in ENE 6.2 mph 9.3 mph 43% 0 in 821.00 W/m2 unknown
12:14 87.8 °F 60.8 °F 30 in East 6.2 mph 9.3 mph 42% 0 in 828.00 W/m2 unknown
12:19 87.8 °F 60.8 °F 30 in ESE 7.5 mph 10.6 mph 42% 0 in 833.00 W/m2 unknown
12:24 87.8 °F 62.6 °F 30 in East 8.7 mph 11.8 mph 44% 0 in 837.00 W/m2 unknown
12:29 87.8 °F 60.8 °F 30 in East 8.7 mph 11.8 mph 42% 0 in 840.00 W/m2 unknown
12:34 87.8 °F 62.6 °F 30 in East 6.8 mph 11.8 mph 42% 0 in 846.00 W/m2 unknown
12:39 87.8 °F 60.8 °F 30 in ENE 8.1 mph 11.8 mph 41% 0 in 849.00 W/m2 unknown
12:44 87.8 °F 62.6 °F 30 in East 7.5 mph 11.8 mph 42% 0 in 853.00 W/m2 unknown
12:49 87.8 °F 62.6 °F 30 in ESE 6.8 mph 13 mph 42% 0 in 856.00 W/m2 unknown
12:53 87.8 °F 62.6 °F 30 in East 8.1 mph 13 mph 42% 0 in 858.00 W/m2 unknown
12:59 87.8 °F 62.6 °F 30 in ESE 9.3 mph 13 mph 43% 0 in 861.00 W/m2 unknown
13:04 87.8 °F 64.4 °F 30 in ESE 8.1 mph 13 mph 44% 0 in 863.00 W/m2 unknown
13:09 87.8 °F 62.6 °F 30 in East 8.1 mph 9.9 mph 43% 0 in 863.00 W/m2 unknown
13:11 87.8 °F 62.6 °F 30 in ENE 6.2 mph 6.8 mph 42% 0 in 861.00 W/m2 unknown
13:19 89.6 °F 62.6 °F 30 in ENE 6.2 mph 10.6 mph 42% 0 in 867.00 W/m2 unknown
13:24 89.6 °F 60.8 °F 30 in East 5.6 mph 10.6 mph 40% 0 in 867.00 W/m2 unknown
13:27 89.6 °F 60.8 °F 30 in NE 6.2 mph 10.6 mph 39% 0 in 865.00 W/m2 unknown
13:34 89.6 °F 64.4 °F 30 in East 6.2 mph 10.6 mph 43% 0 in 865.00 W/m2 unknown
13:39 89.6 °F 64.4 °F 30 in ESE 5 mph 9.3 mph 44% 0 in 867.00 W/m2 unknown
13:43 89.6 °F 64.4 °F 30 in East 5.6 mph 9.3 mph 44% 0 in 867.00 W/m2 unknown
13:48 89.6 °F 64.4 °F 30 in ESE 6.2 mph 9.3 mph 43% 0 in 867.00 W/m2 unknown
13:54 89.6 °F 64.4 °F 30 in ESE 6.2 mph 8.7 mph 43% 0 in 867.00 W/m2 unknown
13:59 89.6 °F 64.4 °F 29.9 in SE 5 mph 6.8 mph 43% 0 in 863.00 W/m2 unknown
14:04 89.6 °F 64.4 °F 29.9 in SE 3.1 mph 6.8 mph 43% 0 in 865.00 W/m2 unknown
14:09 89.6 °F 64.4 °F 29.9 in East 6.2 mph 10.6 mph 43% 0 in 861.00 W/m2 unknown
14:14 89.6 °F 64.4 °F 29.9 in ESE 6.8 mph 10.6 mph 43% 0 in 856.00 W/m2 unknown
14:19 91.4 °F 64.4 °F 29.9 in SE 6.2 mph 10.6 mph 42% 0 in 854.00 W/m2 unknown
14:24 91.4 °F 62.6 °F 29.9 in ESE 6.2 mph 10.6 mph 41% 0 in 853.00 W/m2 unknown
14:29 89.6 °F 62.6 °F 29.9 in SSE 5 mph 6.8 mph 40% 0 in 849.00 W/m2 unknown
14:34 91.4 °F 64.4 °F 29.9 in ESE 3.1 mph 6.8 mph 42% 0 in 840.00 W/m2 unknown
14:39 91.4 °F 66.2 °F 29.9 in ESE 3.7 mph 6.8 mph 44% 0 in 838.00 W/m2 unknown
14:44 91.4 °F 64.4 °F 29.9 in ENE 4.3 mph 8.1 mph 41% 0 in 837.00 W/m2 unknown
14:49 91.4 °F 64.4 °F 29.9 in East 5 mph 9.3 mph 41% 0 in 830.00 W/m2 unknown
14:54 91.4 °F 64.4 °F 29.9 in East 5 mph 9.3 mph 42% 0 in 828.00 W/m2 unknown
14:59 91.4 °F 66.2 °F 29.9 in ESE 3.1 mph 8.7 mph 45% 0 in 824.00 W/m2 unknown
15:04 91.4 °F 64.4 °F 29.9 in SSE 3.7 mph 6.8 mph 41% 0 in 817.00 W/m2 unknown
15:09 91.4 °F 64.4 °F 29.9 in SE 5 mph 6.8 mph 40% 0 in 812.00 W/m2 unknown
15:14 91.4 °F 64.4 °F 29.9 in SE 5.6 mph 6.8 mph 40% 0 in 805.00 W/m2 unknown
15:19 91.4 °F 64.4 °F 29.9 in ESE 5 mph 8.1 mph 40% 0 in 796.00 W/m2 unknown
15:24 91.4 °F 64.4 °F 29.9 in SE 5 mph 8.1 mph 40% 0 in 784.00 W/m2 unknown
15:29 91.4 °F 64.4 °F 29.9 in SSE 3.1 mph 8.1 mph 40% 0 in 784.00 W/m2 unknown
15:34 91.4 °F 64.4 °F 29.9 in SE 5.6 mph 9.3 mph 40% 0 in 772.00 W/m2 unknown
15:39 91.4 °F 64.4 °F 29.9 in East 5.6 mph 9.3 mph 40% 0 in 765.00 W/m2 unknown
15:44 91.4 °F 64.4 °F 29.9 in SSE 5 mph 8.7 mph 40% 0 in 756.00 W/m2 unknown
15:49 91.4 °F 64.4 °F 29.9 in SSE 3.1 mph 6.8 mph 40% 0 in 747.00 W/m2 unknown
15:54 91.4 °F 64.4 °F 29.9 in SE 2.5 mph 6.8 mph 40% 0 in 744.00 W/m2 unknown
15:59 91.4 °F 64.4 °F 29.9 in SSE 3.1 mph 6.8 mph 41% 0 in 733.00 W/m2 unknown
16:04 91.4 °F 64.4 °F 29.9 in ESE 3.1 mph 6.8 mph 39% 0 in 726.00 W/m2 unknown
16:09 91.4 °F 64.4 °F 29.9 in SE 3.7 mph 6.8 mph 39% 0 in 712.00 W/m2 unknown
16:14 91.4 °F 64.4 °F 29.9 in SSE 3.7 mph 8.1 mph 41% 0 in 703.00 W/m2 unknown
16:19 91.4 °F 64.4 °F 29.9 in ESE 4.3 mph 8.1 mph 41% 0 in 691.00 W/m2 unknown
16:24 91.4 °F 66.2 °F 29.9 in SE 5.6 mph 8.1 mph 42% 0 in 679.00 W/m2 unknown
16:29 91.4 °F 66.2 °F 29.9 in ESE 5 mph 8.1 mph 42% 0 in 668.00 W/m2 unknown
16:34 93.2 °F 64.4 °F 29.9 in SE 5 mph 6.2 mph 41% 0 in 656.00 W/m2 unknown
16:39 93.2 °F 64.4 °F 29.9 in SE 3.1 mph 5 mph 42% 0 in 645.00 W/m2 unknown
16:44 93.2 °F 64.4 °F 29.9 in ESE 4.3 mph 6.8 mph 42% 0 in 636.00 W/m2 unknown
16:49 91.4 °F 64.4 °F 29.9 in ESE 5 mph 6.8 mph 41% 0 in 626.00 W/m2 unknown
16:52 91.4 °F 64.4 °F 29.9 in ESE 5 mph 6.8 mph 41% 0 in 610.00 W/m2 unknown
16:59 91.4 °F 64.4 °F 29.9 in ESE 5 mph 6.8 mph 40% 0 in 605.00 W/m2 unknown
17:04 93.2 °F 64.4 °F 29.9 in ESE 5 mph 6.8 mph 40% 0 in 598.00 W/m2 unknown
17:09 91.4 °F 64.4 °F 29.9 in East 5 mph 8.1 mph 39% 0 in 577.00 W/m2 unknown
17:14 91.4 °F 62.6 °F 29.9 in SSE 5 mph 8.1 mph 39% 0 in 563.00 W/m2 unknown
17:19 91.4 °F 62.6 °F 29.9 in SE 5 mph 8.1 mph 39% 0 in 550.00 W/m2 unknown
17:24 91.4 °F 62.6 °F 29.9 in ESE 5 mph 6.2 mph 39% 0 in 538.00 W/m2 unknown
17:29 91.4 °F 64.4 °F 29.9 in ESE 3.1 mph 6.2 mph 41% 0 in 524.00 W/m2 unknown
17:34 91.4 °F 64.4 °F 29.9 in ESE 3.7 mph 6.8 mph 42% 0 in 512.00 W/m2 unknown
17:39 91.4 °F 66.2 °F 29.9 in East 3.7 mph 6.8 mph 43% 0 in 496.00 W/m2 unknown
17:44 91.4 °F 66.2 °F 29.9 in ESE 3.7 mph 6.8 mph 43% 0 in 483.00 W/m2 unknown
17:49 91.4 °F 64.4 °F 29.9 in East 5 mph 6.8 mph 42% 0 in 469.00 W/m2 unknown
17:54 91.4 °F 64.4 °F 29.9 in East 6.2 mph 9.3 mph 42% 0 in 455.00 W/m2 unknown
17:59 91.4 °F 64.4 °F 29.9 in ESE 6.2 mph 9.3 mph 42% 0 in 439.00 W/m2 unknown
18:04 91.4 °F 64.4 °F 29.9 in ESE 6.2 mph 8.7 mph 42% 0 in 427.00 W/m2 unknown
18:09 91.4 °F 64.4 °F 29.9 in ENE 6.2 mph 8.1 mph 42% 0 in 411.00 W/m2 unknown
18:14 91.4 °F 64.4 °F 29.9 in ESE 6.2 mph 8.1 mph 42% 0 in 397.00 W/m2 unknown
18:19 91.4 °F 64.4 °F 29.9 in SE 5 mph 6.8 mph 42% 0 in 385.00 W/m2 unknown
18:24 91.4 °F 64.4 °F 29.9 in ESE 5 mph 6.2 mph 41% 0 in 369.00 W/m2 unknown
18:29 91.4 °F 64.4 °F 29.9 in ESE 4.3 mph 6.2 mph 42% 0 in 355.00 W/m2 unknown
18:34 91.4 °F 64.4 °F 29.9 in SE 3.7 mph 6.2 mph 43% 0 in 343.00 W/m2 unknown
18:39 89.6 °F 64.4 °F 29.9 in East 3.7 mph 6.2 mph 43% 0 in 329.00 W/m2 unknown
18:44 89.6 °F 64.4 °F 29.9 in ESE 5 mph 8.1 mph 43% 0 in 313.00 W/m2 unknown
18:49 89.6 °F 66.2 °F 29.9 in ESE 5 mph 8.1 mph 45% 0 in 297.00 W/m2 unknown
18:54 89.6 °F 66.2 °F 29.9 in East 5 mph 8.1 mph 45% 0 in 285.00 W/m2 unknown
18:59 89.6 °F 66.2 °F 29.9 in ESE 3.1 mph 5 mph 45% 0 in 271.00 W/m2 unknown
19:04 89.6 °F 66.2 °F 29.9 in SE 2.5 mph 3.7 mph 46% 0 in 257.00 W/m2 unknown
19:09 89.6 °F 66.2 °F 29.9 in ESE 1.9 mph 3.7 mph 45% 0 in 239.00 W/m2 unknown
19:11 89.6 °F 66.2 °F 29.9 in SE 1.9 mph 5 mph 46% 0 in 225.00 W/m2 unknown
19:19 89.6 °F 66.2 °F 29.9 in ESE 3.1 mph 5 mph 47% 0 in 225.00 W/m2 unknown
19:24 89.6 °F 66.2 °F 29.9 in ESE 3.1 mph 5 mph 47% 0 in 195.00 W/m2 unknown
19:29 89.6 °F 66.2 °F 29.9 in ESE 4.3 mph 6.8 mph 48% 0 in 195.00 W/m2 unknown
19:33 87.8 °F 66.2 °F 29.9 in East 5.6 mph 8.1 mph 48% 0 in 167.00 W/m2 unknown
19:39 87.8 °F 64.4 °F 29.9 in ESE 6.2 mph 8.1 mph 48% 0 in 151.00 W/m2 unknown
19:44 87.8 °F 64.4 °F 29.9 in ESE 6.2 mph 8.1 mph 48% 0 in 135.00 W/m2 unknown
19:49 87.8 °F 66.2 °F 29.9 in ESE 6.2 mph 8.1 mph 49% 0 in 121.00 W/m2 unknown
19:54 86 °F 66.2 °F 29.9 in ESE 5 mph 8.1 mph 49% 0 in 105.00 W/m2 unknown
19:59 86 °F 64.4 °F 29.9 in ESE 3.7 mph 8.1 mph 48% 0 in 88.00 W/m2 unknown
20:04 86 °F 64.4 °F 29.9 in SE 4.3 mph 6.8 mph 49% 0 in 81.00 W/m2 unknown
20:09 86 °F 64.4 °F 29.9 in ESE 4.3 mph 6.8 mph 49% 0 in 69.00 W/m2 unknown
20:14 86 °F 64.4 °F 29.9 in ESE 5 mph 6.8 mph 49% 0 in 54.00 W/m2 unknown
20:19 86 °F 64.4 °F 29.9 in SE 5 mph 6.8 mph 49% 0 in 32.00 W/m2 unknown
20:24 86 °F 64.4 °F 29.9 in SE 5 mph 8.1 mph 50% 0 in 28.00 W/m2 unknown
20:29 84.2 °F 64.4 °F 29.9 in ESE 5.6 mph 8.7 mph 50% 0 in 26.00 W/m2 unknown
20:34 84.2 °F 62.6 °F 29.9 in ESE 6.2 mph 9.3 mph 49% 0 in 23.00 W/m2 unknown
20:39 84.2 °F 64.4 °F 29.9 in SE 6.2 mph 9.3 mph 50% 0 in 19.00 W/m2 unknown
20:44 84.2 °F 64.4 °F 29.9 in ESE 5 mph 6.8 mph 51% 0 in 16.00 W/m2 unknown
20:48 84.2 °F 64.4 °F 29.9 in ESE 3.1 mph 5 mph 51% 0 in 12.00 W/m2 unknown
20:54 84.2 °F 64.4 °F 29.9 in SE 3.1 mph 6.2 mph 52% 0 in 11.00 W/m2 unknown
20:58 82.4 °F 64.4 °F 29.9 in ESE 3.7 mph 6.8 mph 52% 0 in 5.00 W/m2 unknown
21:04 82.4 °F 64.4 °F 29.9 in SE 3.7 mph 6.8 mph 53% 0 in 0.00 W/m2 unknown
21:09 82.4 °F 64.4 °F 29.9 in SSE 3.7 mph 6.8 mph 54% 0 in 0.00 W/m2 unknown
21:14 82.4 °F 64.4 °F 29.9 in SE 3.1 mph 6.2 mph 54% 0 in 0.00 W/m2 unknown
21:19 82.4 °F 64.4 °F 29.9 in ESE 3.7 mph 8.1 mph 54% 0 in 0.00 W/m2 unknown
21:24 82.4 °F 62.6 °F 29.9 in SE 4.3 mph 8.1 mph 54% 0 in 0.00 W/m2 unknown
21:29 80.6 °F 62.6 °F 29.9 in SSE 4.3 mph 8.1 mph 55% 0 in 0.00 W/m2 unknown
21:34 80.6 °F 62.6 °F 29.9 in SE 5 mph 8.1 mph 55% 0 in 0.00 W/m2 unknown
21:39 80.6 °F 62.6 °F 29.9 in ESE 3.7 mph 8.1 mph 55% 0 in 0.00 W/m2 unknown
21:44 80.6 °F 62.6 °F 29.9 in ESE 3.1 mph 6.8 mph 56% 0 in 0.00 W/m2 unknown
21:48 80.6 °F 62.6 °F 29.9 in ESE 3.1 mph 3.7 mph 56% 0 in 0.00 W/m2 unknown
21:54 80.6 °F 62.6 °F 29.9 in ESE 1.9 mph 3.7 mph 56% 0 in 0.00 W/m2 unknown
21:59 80.6 °F 62.6 °F 29.9 in ESE 3.1 mph 6.8 mph 57% 0 in 0.00 W/m2 unknown
22:04 78.8 °F 62.6 °F 29.9 in ESE 3.1 mph 6.8 mph 58% 0 in 0.00 W/m2 unknown
22:09 78.8 °F 62.6 °F 29.9 in ESE 3.1 mph 6.8 mph 57% 0 in 0.00 W/m2 unknown
22:14 78.8 °F 62.6 °F 29.9 in SE 3.1 mph 5 mph 57% 0 in 0.00 W/m2 unknown
22:19 78.8 °F 62.6 °F 29.9 in SE 3.1 mph 5 mph 58% 0 in 0.00 W/m2 unknown
22:24 78.8 °F 62.6 °F 29.9 in SE 3.1 mph 3.7 mph 58% 0 in 0.00 W/m2 unknown
22:29 78.8 °F 62.6 °F 29.9 in SE 3.1 mph 3.7 mph 58% 0 in 0.00 W/m2 unknown
22:34 78.8 °F 62.6 °F 29.9 in ESE 3.1 mph 3.7 mph 58% 0 in 0.00 W/m2 unknown
22:39 78.8 °F 62.6 °F 29.9 in ESE 3.1 mph 3.7 mph 59% 0 in 0.00 W/m2 unknown
22:44 78.8 °F 62.6 °F 29.9 in East 3.1 mph 5 mph 59% 0 in 0.00 W/m2 unknown
22:49 77 °F 62.6 °F 29.9 in ENE 3.1 mph 5 mph 60% 0 in 0.00 W/m2 unknown
22:54 77 °F 62.6 °F 29.9 in ENE 3.1 mph 5 mph 60% 0 in 0.00 W/m2 unknown
22:59 77 °F 62.6 °F 29.9 in NE 3.1 mph 3.7 mph 60% 0 in 0.00 W/m2 unknown
23:04 77 °F 62.6 °F 29.9 in ENE 3.1 mph 3.7 mph 61% 0 in 0.00 W/m2 unknown
23:09 77 °F 62.6 °F 29.9 in ENE 2.5 mph 3.7 mph 61% 0 in 0.00 W/m2 unknown
23:14 77 °F 62.6 °F 29.9 in ENE 3.7 mph 5 mph 61% 0 in 0.00 W/m2 unknown
23:19 77 °F 62.6 °F 29.9 in ENE 3.7 mph 5 mph 61% 0 in 0.00 W/m2 unknown
23:24 77 °F 62.6 °F 29.9 in ENE 4.3 mph 5 mph 62% 0 in 0.00 W/m2 unknown
23:29 77 °F 62.6 °F 29.9 in ENE 4.3 mph 5 mph 63% 0 in 0.00 W/m2 unknown
23:34 75.2 °F 62.6 °F 29.9 in ENE 3.7 mph 5 mph 63% 0 in 0.00 W/m2 unknown
23:39 75.2 °F 62.6 °F 29.9 in ENE 3.7 mph 5 mph 64% 0 in 0.00 W/m2 unknown
23:44 75.2 °F 62.6 °F 29.9 in ENE 4.3 mph 6.8 mph 65% 0 in 0.00 W/m2 unknown
23:49 75.2 °F 62.6 °F 29.9 in ENE 5 mph 6.8 mph 66% 0 in 0.00 W/m2 unknown
23:54 75.2 °F 62.6 °F 29.9 in ENE 5 mph 6.8 mph 66% 0 in 0.00 W/m2 unknown
23:59 75.2 °F 62.6 °F 29.9 in ENE 5 mph 6.8 mph 67% 0 in 0.00 W/m2 unknown
Stazione Meteorologica MeteoMincio Rivalta s/M (MN)
Con i complimenti di Weather Underground - 4 mb



METEO PILLOLE
Temperatura minima più alta
Khasab (3m) - Oman
Il 27 giugno 2011 il termometro segnò +41.7°c .
Share

Non seguire questo link o sarai bannato dal sito!